• In Russia
  • List of Countries
  • For 7 days
  • Water Temperature
  • Satellite Maps
  • Weather Map
  • Weather Widgets
  • user-avatar
    Login

    Hourly Weather Sajoszentpeter

    Today, 24 January, Wednesday

    Time Temperature Precipitation Wind Pressure Humidity
    00:00 -3°C° 0 mm 0 mps 756 mmHg 90%
    01:00 -3°C° 0 mm 0 mps 757 mmHg 90%
    02:00 -3°C° 0 mm 0 mps 757 mmHg 91%
    03:00 -3°C° 0 mm 0 mps 757 mmHg 91%
    04:00 -3°C° 0 mm 1 mps 757 mmHg 92%
    05:00 -2°C° 0 mm 1 mps 757 mmHg 92%
    06:00 -2°C° 0 mm 1 mps 757 mmHg 92%
    07:00 -2°C° 0 mm 1 mps 758 mmHg 92%
    08:00 -2°C° 0 mm 1 mps 758 mmHg 90%
    09:00 -1°C° 0 mm 1 mps 758 mmHg 87%
    10:00 -2°C° 0 mm 2 mps 758 mmHg 84%
    11:00 -2°C° 0 mm 2 mps 758 mmHg 84%
    12:00 -1°C° 0 mm 2 mps 758 mmHg 83%
    13:00 -1°C° 0 mm 2 mps 758 mmHg 82%
    14:00 -1°C° 0 mm 2 mps 758 mmHg 84%
    15:00 -1°C° 0 mm 2 mps 758 mmHg 86%
    16:00 -1°C° 0 mm 2 mps 758 mmHg 88%
    17:00 -1°C° 0 mm 2 mps 758 mmHg 89%
    18:00 +1°C° 0 mm 1 mps 758 mmHg 89%
    19:00 +1°C° 0 mm 1 mps 758 mmHg 90%
    20:00 -1°C° 0 mm 2 mps 758 mmHg 90%
    21:00 -1°C° 0 mm 2 mps 758 mmHg 90%
    22:00 -1°C° 0 mm 2 mps 757 mmHg 91%
    23:00 -1°C° 0 mm 2 mps 757 mmHg 91%

    Tomorrow, 25 January, Thursday

    Time Temperature Precipitation Wind Pressure Humidity
    00:00 -2°C° 0 mm 2 mps 757 mmHg 91%
    01:00 -2°C° 0 mm 2 mps 757 mmHg 92%
    02:00 -2°C° 0 mm 2 mps 757 mmHg 92%
    03:00 0°C° 0 mm 1 mps 756 mmHg 92%
    04:00 -1°C° 0 mm 1 mps 756 mmHg 93%
    05:00 -1°C° 0 mm 1 mps 756 mmHg 92%
    06:00 -1°C° 0 mm 1 mps 756 mmHg 92%
    07:00 -1°C° 0 mm 1 mps 755 mmHg 92%
    08:00 0°C° 0 mm 1 mps 755 mmHg 87%
    09:00 +1°C° 0 mm 1 mps 755 mmHg 82%
    10:00 +1°C° 0 mm 1 mps 755 mmHg 78%
    11:00 +2°C° 0 mm 1 mps 755 mmHg 75%
    12:00 +3°C° 0 mm 1 mps 754 mmHg 72%
    13:00 +2°C° 0 mm 2 mps 754 mmHg 68%
    14:00 +3°C° 0 mm 1 mps 753 mmHg 71%
    15:00 +2°C° 0 mm 1 mps 753 mmHg 74%
    16:00 +1°C° 0 mm 1 mps 753 mmHg 77%
    17:00 +1°C° 0 mm 1 mps 752 mmHg 78%
    18:00 0°C° 0 mm 1 mps 752 mmHg 79%
    19:00 0°C° 0 mm 1 mps 752 mmHg 80%
    20:00 0°C° 0 mm 1 mps 752 mmHg 80%
    21:00 0°C° 0 mm 1 mps 752 mmHg 79%
    22:00 0°C° 0 mm 1 mps 751 mmHg 79%
    23:00 0°C° 0 mm 1 mps 751 mmHg 79%

    Day after tomorrow, 26 January, Friday

    Time Temperature Precipitation Wind Pressure Humidity
    00:00 0°C° 0 mm 1 mps 751 mmHg 78%
    01:00 0°C° 0 mm 1 mps 750 mmHg 78%
    02:00 0°C° 0 mm 1 mps 750 mmHg 78%
    03:00 0°C° 0 mm 1 mps 749 mmHg 79%
    04:00 -3°C° 0 mm 2 mps 749 mmHg 79%
    05:00 -2°C° 0 mm 2 mps 749 mmHg 79%
    06:00 0°C° 0 mm 1 mps 749 mmHg 79%
    07:00 0°C° 0 mm 1 mps 749 mmHg 78%
    08:00 -2°C° 0 mm 2 mps 749 mmHg 75%
    09:00 -1°C° 0 mm 2 mps 749 mmHg 72%
    10:00 +1°C° 0 mm 2 mps 749 mmHg 69%
    11:00 +2°C° 0 mm 2 mps 749 mmHg 68%
    12:00 +3°C° 0 mm 2 mps 749 mmHg 66%
    13:00 +3°C° 0 mm 2 mps 749 mmHg 65%
    14:00 +4°C° 0 mm 1 mps 749 mmHg 68%
    15:00 +3°C° 0 mm 1 mps 749 mmHg 71%
    16:00 +3°C° 0 mm 1 mps 749 mmHg 75%
    17:00 +2°C° 0 mm 1 mps 749 mmHg 75%
    18:00 +2°C° 0 mm 1 mps 750 mmHg 76%
    19:00 +2°C° 0 mm 1 mps 750 mmHg 77%
    20:00 +2°C° 0 mm 1 mps 750 mmHg 77%
    21:00 +2°C° 0 mm 1 mps 751 mmHg 77%
    22:00 +1°C° 0 mm 1 mps 751 mmHg 77%
    23:00 +1°C° 0 mm 1 mps 751 mmHg 77%

    27 January, Saturday

    Time Temperature Precipitation Wind Pressure Humidity
    00:00 +1°C° 0 mm 1 mps 751 mmHg 77%
    01:00 +1°C° 0 mm 1 mps 751 mmHg 77%
    02:00 +1°C° 0 mm 1 mps 752 mmHg 78%
    03:00 +1°C° 0 mm 1 mps 752 mmHg 78%
    04:00 +1°C° 0 mm 1 mps 752 mmHg 78%
    05:00 0°C° 0 mm 0 mps 752 mmHg 78%
    06:00 0°C° 0 mm 0 mps 752 mmHg 78%
    07:00 0°C° 0 mm 0 mps 753 mmHg 78%
    08:00 +1°C° 0 mm 0 mps 753 mmHg 74%
    09:00 +2°C° 0 mm 0 mps 754 mmHg 70%
    10:00 +3°C° 0 mm 0 mps 754 mmHg 66%
    11:00 +4°C° 0 mm 0 mps 754 mmHg 65%
    12:00 +4°C° 0 mm 0 mps 755 mmHg 63%
    13:00 +5°C° 0 mm 0 mps 755 mmHg 61%
    14:00 +4°C° 0 mm 0 mps 755 mmHg 65%
    15:00 +3°C° 0 mm 0 mps 755 mmHg 70%
    16:00 +2°C° 0 mm 0 mps 755 mmHg 74%
    17:00 +2°C° 0 mm 0 mps 756 mmHg 75%
    18:00 +1°C° 0 mm 0 mps 756 mmHg 77%
    19:00 +1°C° 0 mm 0 mps 757 mmHg 78%
    20:00 +2°C° 0 mm 1 mps 757 mmHg 79%
    21:00 +2°C° 0 mm 1 mps 757 mmHg 80%
    22:00 +2°C° 0 mm 1 mps 758 mmHg 81%
    23:00 +1°C° 0 mm 0 mps 758 mmHg 82%

    28 January, Sunday

    Time Temperature Precipitation Wind Pressure Humidity
    00:00 +1°C° 0 mm 0 mps 758 mmHg 82%
    01:00 +1°C° 0 mm 0 mps 758 mmHg 83%
    02:00 +1°C° 0 mm 0 mps 758 mmHg 84%
    03:00 +1°C° 0 mm 0 mps 758 mmHg 85%
    04:00 +1°C° 0 mm 0 mps 758 mmHg 85%
    05:00 +1°C° 0 mm 0 mps 758 mmHg 86%
    06:00 0°C° 0 mm 0 mps 758 mmHg 86%
    07:00 0°C° 0 mm 0 mps 759 mmHg 87%
    08:00 +1°C° 0 mm 0 mps 759 mmHg 84%
    09:00 +3°C° 0 mm 1 mps 759 mmHg 80%
    10:00 +4°C° 0 mm 1 mps 759 mmHg 77%
    11:00 +5°C° 0 mm 1 mps 759 mmHg 76%
    12:00 +4°C° 0 mm 2 mps 758 mmHg 76%
    13:00 +5°C° 0 mm 2 mps 758 mmHg 75%
    14:00 +4°C° 0 mm 2 mps 758 mmHg 80%
    15:00 +4°C° 0 mm 2 mps 758 mmHg 85%
    16:00 +3°C° 0 mm 2 mps 758 mmHg 90%
    17:00 +2°C° 0 mm 2 mps 758 mmHg 91%
    18:00 +2°C° 0 mm 2 mps 758 mmHg 92%
    19:00 +1°C° 0 mm 2 mps 758 mmHg 93%
    20:00 +1°C° 0 mm 2 mps 758 mmHg 92%
    21:00 +2°C° 0 mm 2 mps 758 mmHg 92%
    22:00 +2°C° 0 mm 2 mps 758 mmHg 91%
    23:00 +1°C° 0 mm 2 mps 758 mmHg 91%

    29 January, Monday

    Time Temperature Precipitation Wind Pressure Humidity
    00:00 +2°C° 0 mm 1 mps 758 mmHg 92%
    01:00 +2°C° 0 mm 1 mps 758 mmHg 92%
    02:00 +2°C° 0 mm 1 mps 757 mmHg 92%
    03:00 +2°C° 0 mm 1 mps 757 mmHg 92%
    04:00 +2°C° 0 mm 1 mps 757 mmHg 92%
    05:00 +2°C° 0 mm 1 mps 757 mmHg 92%
    06:00 +2°C° 0 mm 1 mps 757 mmHg 92%
    07:00 +2°C° 0 mm 1 mps 757 mmHg 92%
    08:00 +3°C° 0 mm 1 mps 758 mmHg 90%
    09:00 +4°C° 0 mm 1 mps 758 mmHg 87%
    10:00 +5°C° 0 mm 1 mps 758 mmHg 84%
    11:00 +6°C° 0 mm 1 mps 758 mmHg 83%
    12:00 +7°C° 0 mm 1 mps 757 mmHg 82%
    13:00 +7°C° 0 mm 1 mps 757 mmHg 81%
    14:00 +7°C° 0 mm 1 mps 757 mmHg 84%
    15:00 +6°C° 0 mm 1 mps 757 mmHg 88%
    16:00 +5°C° 0 mm 1 mps 757 mmHg 91%
    17:00 +5°C° 0 mm 1 mps 757 mmHg 92%
    18:00 +4°C° 0 mm 1 mps 757 mmHg 93%
    19:00 +3°C° 0 mm 1 mps 757 mmHg 94%
    20:00 +3°C° 0 mm 1 mps 757 mmHg 94%
    21:00 +2°C° 0 mm 0 mps 757 mmHg 94%
    22:00 +2°C° 0 mm 0 mps 757 mmHg 95%
    23:00 +2°C° 0 mm 0 mps 756 mmHg 95%
    Show more